Regional Weather Roundup
Issued by NWS Grand Forks, ND

Home | Current Version | Previous Version | Text Only | Print | Product List | Glossary Off
Versions: 1 2 3 4 5 6 7 8 9 10 11 12 13 14 15 16 17 18 19 20 21 22 23 24 25 26 27 28 29 30 31 32 33 34 35 36 37 38 39 40 41 42 43 44 45 46 47 48 49 50

000
ASUS43 KFGF 172031
RWRFGF
PRAIRIE TO PINES  WEATHER ROUNDUP
NATIONAL WEATHER SERVICE EASTERN NORTH DAKOTA/GRAND FORKS ND
300 PM CDT THU APR 17 2014

 **SATELLITE DATA USED TO AUGMENT SKY COVER AT AUTOMATED STATIONS**
 *****  WEATHER ACROSS EASTERN NORTH DAKOTA  *****

CITY           SKY/WX    TMP DP  RH WIND       PRES   REMARKS
GRAND FORKS    MOSUNNY   41  11  29 NW12      30.32F
GRAND FRKS AFB SUNNY     41   9  26 N15G23    30.30F
GRAND FRKS NWS   N/A     41 N/A N/A E5          N/A
DEVILS LAKE    SUNNY     37   9  30 SE7       30.28S
FARGO          SUNNY     43  15  32 W7        30.31S
WAHPETON ARPT  CLEAR     43   9  24 N5        30.30F
$$

 ***** WEATHER ACROSS CENTRAL AND WESTERN NORTH DAKOTA  *****

CITY           SKY/WX    TMP DP  RH WIND       PRES   REMARKS
BISMARCK       PTSUNNY   45  18  34 S13G25    30.22F
MINOT          CLOUDY    40  15  36 SE15      30.20F
JAMESTOWN      SUNNY     42  10  27 MISG      30.25F
MINOT AFB      CLOUDY    40  18  40 SE16      30.20F
GARRISON         N/A     41  18  39 S15       30.18F
WILLISTON      PTSUNNY   43  24  47 SE17G24   30.10F
DICKINSON      CLOUDY    36  25  64 SE21G28   30.10F
HETTINGER      PTSUNNY   39  27  62 SE18G26   30.12F
$$

 *****  OTHER AIRPORT OBSERVATIONS IN OUR AREA  *****

CITY           SKY/WX    TMP DP  RH WIND       PRES   REMARKS
WALHALLA         N/A     37   5  25 W5        30.32F
GRAFTON AIRPOR FAIR      37   9  30 N8        30.32F
VALLEY CITY AR NOT AVBL
CANDO          FAIR      37   9  30 S9        30.28F
CAVALIER APRT  FAIR      39   9  28 N8        30.32F
GWINNER        CLEAR     45  14  29 E5        30.29F
SHEYENNE NWR     N/A     45  10  23 E5        29.95S
ROLLA          FAIR      36  14  41 SE10      30.26F
 ***** THE ABOVE OBSERVATIONS ARE NON NWS ARE NOT QUALITY
       CONTROLLED AND MAY MIS-REPORT RAIN FOR SNOW...
$$

  *****  WEATHER ACROSS NORTHERN MINNESOTA  *****

CITY           SKY/WX    TMP DP  RH WIND       PRES   REMARKS
FLAG ISLAND    SUNNY     36   7  30 N6        30.30F
WARROAD        SUNNY     36   9  32 E7        30.31F
ROSEAU         SUNNY     39   3  22 E3        30.30F
HALLOCK        CLOUDY    39   3  22 CALM      30.32F
THF RVR FALLS  SUNNY     39   9  28 N5        30.30F
BAUDETTE       SUNNY     38  12  34 N12       30.29S
WASKISH        SUNNY     43  18  36 W9        30.27S
CROOKSTON      SUNNY     39  14  35 N7        30.32S
$$
  *****  WEATHER ACROSS CENTRAL AND WEST MINNESOTA  *****

CITY           SKY/WX    TMP DP  RH WIND       PRES   REMARKS
FOSSTON        SUNNY     43  12  28 NW8       30.28S
BEMIDJI        SUNNY     40   1  19 N10       30.26S
PARK RAPIDS    SUNNY     42   2  18 VRB5      30.24S
ELBOW LAKE     FAIR      41  16  35 NW12      30.28S
WADENA         SUNNY     41  16  36 NW3       30.25S
DETROIT LAKES  SUNNY     41  12  30 N8        30.28S
MOORHEAD       SUNNY     43  10  26 NE6       30.31F
FERGUS FALLS   SUNNY     41   9  26 N9        30.27S
MORRIS MN      MOSUNNY   41  18  38 N7        30.29S
STAPLES        SUNNY     43  12  28 NW6       30.24F
$$
  *****  WEATHER ELSEWHERE ACROSS MINNESOTA  *****

CITY           SKY/WX    TMP DP  RH WIND       PRES   REMARKS
DULUTH         PTSUNNY   36  23  59 NW13      30.21S
INTRNTL FALLS  PTSUNNY   37  18  46 NE8       30.27S
ELY            CLOUDY    32  23  69 N5        30.23S
CLOQUET        CLOUDY    36  21  55 NW12      30.23S
WHEATON        SUNNY     45  18  33 CALM      30.32
BRAINERD       SUNNY     45  21  38 N9G18     30.26R
HIBBING        CLOUDY    37  22  54 N12       30.24R
ALEXANDRIA     SUNNY     38  17  42 N7        30.28S
SAINT CLOUD    SUNNY     39  22  50 NW3       30.27S
MINNEAPOLIS    PTSUNNY   39  28  64 NW8       30.28S
$$

  *****  WEATHER ACROSS SOUTH DAKOTA  *****

CITY           SKY/WX    TMP DP  RH WIND       PRES   REMARKS
SIOUX FALLS    PTSUNNY   42  25  50 NE12      30.30F
BROOKINGS      NOT AVBL
WATERTOWN      SUNNY     36  13  38 VRB3      30.28F
HURON          MOSUNNY   43  20  39 E7        30.29F
SISSETON         N/A     42  20  41 VRB3      30.30S
ABERDEEN       SUNNY     42  15  33 SE7       30.28F
MITCHELL       SUNNY     48  18  30 SE14      30.29F
PIERRE         CLOUDY    43  22  43 SE16      30.22F
MOBRIDGE       CLOUDY    45  19  35 S15G23    30.19F
RAPID CITY     PTSUNNY   46  32  58 S20G26    30.06S
$$

  *****  SOME WEATHER IN NEARBY STATES *****

CITY           SKY/WX    TMP DP  RH WIND       PRES   REMARKS
GLASGOW MT     PTSUNNY   54  30  40 SE16G26   29.92F
GREAT FALLS MT CLOUDY    52  32  46 S9        29.81F
CHEYENNE WY    MOSUNNY   53  17  24 VRB5      30.04F
SCOTTSBLUFF NE SUNNY     56  36  47 SE14G22   30.07F
OMAHA NE       MOSUNNY   51  26  37 NW7       30.28F
DES MOINES IA  PTSUNNY   51  30  44 N10       30.28S
DAVENPORT IA   SUNNY     53  35  50 W12G17    30.24S
CHICAGO IL     PTSUNNY   60  37  42 W14G22    30.19R
EAU CLAIRE WI  CLOUDY    39  30  70 NW6       30.24R
LA CROSSE WI   CLOUDY    43  31  62 NW9       30.25R
$$

  *****  SOME NATIONAL WEATHER *****

CITY           SKY/WX    TMP DP  RH WIND       PRES   REMARKS
LA GUARDIA NY  PTSUNNY   44  22  41 NE7       30.68F
RALEIGH NC     PTSUNNY   63  33  32 E12G17    30.46F
ATLANTA GA     PTSUNNY   64  39  39 E8        30.32F
NEW ORLEANS LA CLOUDY    64  59  83 E15G23    30.14F
OKLAHOMA CITY  CLOUDY    59  41  51 NE12      30.20S
ALBUQUERQUE NM PTSUNNY   64  24  21 VRB3      30.14F
SALT LAKE CITY MOSUNNY   67  25  20 S18G25    29.99F
LOS ANGELES CA CLOUDY    68  52  56 W7        29.89F
BOISE ID       SUNNY     69  28  21 SE15      29.83F
SEATTLE WA     LGT RAIN  52  50  93 S8        29.82F
$$

*** WEATHER ACROSS MANITOBA...SASKATCHEWAN AND ONTARIO ***
                ***ONTARIO***

CITY           SKY/WX    TMP DP  RH WIND       PRES   REMARKS
GERALDTON      LGT SNOW  28  27  93 E10       30.30F VSB 1   WCI  19
THUNDER BAY    LGT SNOW  32  30  93 NE16      30.23F WCI  21
SIOUX LOOKOUT  PTSUNNY   36   3  25 NE7       30.29F
TORONTO        PTSUNNY   46  27  46 E13G20    30.43F
BIG TROUT LK     N/A     30   9  40 S5        30.34F
PICKLE LAKE    CLOUDY    34   0  23 CALM      30.31F
DRYDEN         SUNNY     36   5  27 NE7       30.28F
KENORA         SUNNY     36   3  25 E5        30.30S
$$
                *** MANITOBA***

CITY           SKY/WX    TMP DP  RH WIND       PRES   REMARKS
BRANDON        MOSUNNY   34  14  44 NE10      30.31F
DAUPHIN        SUNNY     36   9  32 SE12G17   30.32F
ISLAND LAKE    MOSUNNY   34   9  35 N2        30.35F
PILOT MOUND      N/A     39  10  30 S7          N/A
THE PAS        SUNNY     32  12  43 SE12      30.33F WCI  23
THOMPSON       MOSUNNY   34  12  40 W6        30.31F
WINNIPEG       SUNNY     36   5  27 N8        30.37S
LYNN LAKE      SUNNY     36   3  25 W10       30.26F
CHURCHILL      PTSUNNY   28  18  64 NW14      30.17R WCI  17
GILLAM         MOSUNNY   34  10  37 W16       30.29F WCI  23
$$
                ***SASKATCHEWAN***

CITY           SKY/WX    TMP DP  RH WIND       PRES   REMARKS
ESTEVAN        CLOUDY    39  21  48 SE17      30.15F
KINDERSLEY     CLOUDY    39  32  75 SE17G25   29.86F
LLOYDMINSTER   LGT SNOW  27  25  93 E17       29.94S FOG     WCI  14
PRINCE ALBERT  PTSUNNY   36  19  51 SE15G26   30.16F
REGINA         CLOUDY    39  21  48 SE23G33   30.10F
YORKTON        SUNNY     34  12  40 SE17G24   30.23F WCI  23
N. BATTLEFORD  CLOUDY    30  27  86 SE17G28   30.00S WCI  18
LA RONGE       SUNNY     36   7  30 E10       30.21F
SASKATOON      CLOUDY    37  23  56 SE24      30.05F
SWIFT CURRENT  MOSUNNY   45  30  57 SE21G29   29.87F
$$
NOTE: THESE ARE AUTOMATED STATIONS WITH LIMITED QUALITY CONTROL
      "FAIR" INDICATES FEW OR NO CLOUDS BELOW 12,000 FEET WITH NO
      SIGNIFICANT WEATHER AND/OR OBSTRUCTIONS TO VISIBILITY.
      SKY/WX - SKY CONDITION AND SIGNIFICANT WEATHER.
      TMP - AIR TEMPERATURE.    DP   - DEWPOINT TEMPERATURE.
      RH  - RELATIVE HUMIDITY.  PRES - PRESSURE.
      HX  - HEAT INDEX.         WCI  - WIND CHILL INDEX.
$



USA.gov is the U.S. government's official web portal to all federal, state and local government web resources and services.